Wind from 023 at 4 knots gusting 8

Air temperature 7.8° C
Dewpoint -2.8° C

Last reported at 2014-Apr-21 06:47 UTC.
Time now 2014-Apr-21 07:31 UTC

Location: N 62°41' E 029°49'.
View on Google Maps.

See reports from other nearby stations

Tides Stations Pressure Air Temp Water Temp Dewpoint Dewpoint depression Visibility Wind Speed Wind Dir Waves Ship positions

  
sailing weather and tide predictions

DW5247 Lemo FI weather

date/time (UTC)wind fromknots sea level pressurealtimeterstation pressurevisibilityair tempwater tempwave heightnotes
2014-Apr-21 06:47 023 4 gusting 8 7.8
2014-Apr-21 06:42 315 4 gusting 8 7.8
2014-Apr-21 06:37 023 3 gusting 6 7.8
2014-Apr-21 06:32 7.8
2014-Apr-21 06:27 225 3 gusting 4 7.2
2014-Apr-21 06:22 023 3 gusting 5 7.2
2014-Apr-21 06:17 023 3 gusting 5 7.2
2014-Apr-21 06:12 023 3 gusting 3 7.2
2014-Apr-21 06:07 023 3 gusting 5 7.2
2014-Apr-21 06:02 045 3 gusting 5 6.7
2014-Apr-21 05:57 023 2 gusting 3 6.7
2014-Apr-21 05:52 315 2 gusting 3 6.7
2014-Apr-21 05:47 023 2 gusting 6 6.7
2014-Apr-21 05:42 045 3 gusting 6 6.7
2014-Apr-21 05:37 023 3 gusting 4 6.1
2014-Apr-21 05:32 023 3 gusting 4 6.1
2014-Apr-21 05:27 023 3 gusting 4 6.1
2014-Apr-21 05:22 023 2 gusting 4 6.1
2014-Apr-21 05:17 023 1 gusting 2 6.1
2014-Apr-21 05:12 338 1 gusting 2 6.1
2014-Apr-21 05:07 338 1 gusting 3 6.1
2014-Apr-21 05:02 023 1 gusting 3 5.6
2014-Apr-21 04:57 315 1 gusting 5 5.6
2014-Apr-21 04:52 338 2 gusting 5 5.6
2014-Apr-21 04:47 5.6
2014-Apr-21 04:42 023 2 gusting 6 5.6
2014-Apr-21 04:37 023 2 gusting 4 5.6
2014-Apr-21 04:32 338 2 gusting 4 5.6
2014-Apr-21 04:27 5.0
2014-Apr-21 04:22 315 2 gusting 4 5.0
2014-Apr-21 04:17 315 2 gusting 3 5.0
2014-Apr-21 04:12 338 2 gusting 4 5.0
2014-Apr-21 04:07 023 3 gusting 4 5.0
2014-Apr-21 04:02 338 3 gusting 4 5.0
2014-Apr-21 03:57 4.4
2014-Apr-21 03:52 315 3 gusting 4 4.4
2014-Apr-21 03:47 023 2 gusting 4 4.4
2014-Apr-21 03:42 338 2 gusting 4 4.4
2014-Apr-21 03:37 270 2 gusting 4 4.4
2014-Apr-21 03:32 315 2 gusting 4 4.4
2014-Apr-21 03:27 315 2 gusting 4 4.4
2014-Apr-21 03:22 338 2 gusting 4 3.9
2014-Apr-21 03:17 338 1 gusting 3 3.9
2014-Apr-21 03:12 338 1 gusting 3 3.9
2014-Apr-21 03:07 338 1 gusting 3 3.3
2014-Apr-21 03:02 338 1 gusting 3 3.3
2014-Apr-21 02:57 023 2 gusting 3 3.3
2014-Apr-21 02:52 338 2 gusting 4 3.3
2014-Apr-21 02:47 338 2 gusting 4 3.3
2014-Apr-21 02:42 338 2 gusting 4 3.3
2014-Apr-21 02:37 338 2 gusting 4 3.3
2014-Apr-21 02:32 338 2 gusting 4 3.3
2014-Apr-21 02:27 315 2 gusting 4 3.3
2014-Apr-21 02:22 315 2 gusting 4 3.3
2014-Apr-21 02:17 315 2 gusting 4 3.3
2014-Apr-21 02:12 338 2 gusting 2 3.3
2014-Apr-21 02:07 338 1 gusting 3 3.3
2014-Apr-21 02:02 315 2 gusting 3 3.3
2014-Apr-21 01:57 338 2 gusting 3 3.3
2014-Apr-21 01:52 338 2 gusting 3 3.3
2014-Apr-21 01:47 338 2 gusting 3 3.3
2014-Apr-21 01:42 338 2 gusting 3 3.3
2014-Apr-21 01:37 338 2 gusting 3 3.3
2014-Apr-21 01:32 338 1 gusting 3 3.3
2014-Apr-21 01:27 023 1 gusting 2 3.3
2014-Apr-21 01:22 023 1 gusting 3 3.3
2014-Apr-21 01:17 338 1 gusting 3 3.3
2014-Apr-21 01:12 315 1 gusting 3 3.3
2014-Apr-21 01:07 338 1 gusting 2 3.3
2014-Apr-21 01:02 3.3
2014-Apr-21 00:57 315 1 gusting 3 3.3
2014-Apr-21 00:52 315 2 gusting 3 3.3
2014-Apr-21 00:47 315 2 gusting 2 2.8
2014-Apr-21 00:42 338 2 gusting 2 2.8
2014-Apr-21 00:37 315 1 gusting 3 2.8
2014-Apr-21 00:32 338 1 gusting 3 2.8
2014-Apr-21 00:27 338 1 gusting 3 2.8
2014-Apr-21 00:22 315 1 gusting 2 2.8
2014-Apr-21 00:17 338 2 gusting 2 2.8
2014-Apr-21 00:12 315 2 gusting 3 2.8
2014-Apr-21 00:07 315 2 gusting 3 2.8
2014-Apr-21 00:02 315 2 gusting 3 2.8
2014-Apr-20 23:57 338 2 gusting 3 2.8
2014-Apr-20 23:52 315 1 gusting 3 2.8
2014-Apr-20 23:47 315 1 gusting 1 2.8
2014-Apr-20 23:42 315 0 gusting 1 2.8
2014-Apr-20 23:37 315 0 gusting 1 3.3
2014-Apr-20 23:32 315 3.3
2014-Apr-20 23:27 315 3.3
2014-Apr-20 23:22 315 0 gusting 2 3.3
2014-Apr-20 23:17 315 0 gusting 2 3.3
2014-Apr-20 23:12 315 1 gusting 2 3.3
2014-Apr-20 23:07 315 1 gusting 2 3.3
2014-Apr-20 23:02 315 0 gusting 2 3.3
2014-Apr-20 22:57 338 1 gusting 3 3.9
2014-Apr-20 22:52 315 1 gusting 3 3.9
2014-Apr-20 22:47 315 2 gusting 3 3.9
2014-Apr-20 22:42 315 1 gusting 3 3.9
2014-Apr-20 22:37 315 2 gusting 3 3.9
2014-Apr-20 22:32 315 2 gusting 3 3.9
2014-Apr-20 22:27 338 2 gusting 3 3.9
2014-Apr-20 22:22 315 2 gusting 2 3.9
2014-Apr-20 22:17 315 1 gusting 3 3.9
2014-Apr-20 22:12 315 2 gusting 3 3.9
2014-Apr-20 22:07 315 2 gusting 3 3.9
2014-Apr-20 22:02 315 1 gusting 3 3.9
2014-Apr-20 21:57 315 1 gusting 1 3.9
2014-Apr-20 21:52 315 1 gusting 1 3.9
2014-Apr-20 21:47 315 0 gusting 1 3.9
2014-Apr-20 21:42 315 0 gusting 1 3.9
2014-Apr-20 21:37 315 3.9
2014-Apr-20 21:32 315 4.4
2014-Apr-20 21:27 315 0 gusting 3 4.4
2014-Apr-20 21:22 315 0 gusting 3 4.4
2014-Apr-20 21:17 315 0 gusting 3 4.4
2014-Apr-20 21:12 293 2 gusting 3 4.4
2014-Apr-20 21:07 293 2 gusting 3 4.4
2014-Apr-20 20:57 315 2 gusting 3 4.4
2014-Apr-20 20:52 315 2 gusting 3 3.9
2014-Apr-20 20:47 315 1 gusting 2 3.9
2014-Apr-20 20:42 315 0 3.9
2014-Apr-20 20:37 023 3.9
2014-Apr-20 20:32 315 3.9
2014-Apr-20 20:27 338 3.9
2014-Apr-20 20:22 315 4.4
2014-Apr-20 20:17 270 4.4
2014-Apr-20 20:12 270 4.4
2014-Apr-20 20:07 270 4.4
2014-Apr-20 20:02 270 4.4
2014-Apr-20 19:57 270 5.0
2014-Apr-20 19:52 270 5.0
2014-Apr-20 19:47 270 0 gusting 1 5.0
2014-Apr-20 19:42 248 0 gusting 1 5.0
2014-Apr-20 19:37 248 5.6
2014-Apr-20 19:32 248 5.6
2014-Apr-20 19:27 248 5.6
2014-Apr-20 19:22 270 5.6
2014-Apr-20 19:17 293 0 gusting 2 6.1
2014-Apr-20 19:12 315 1 gusting 1 6.1
2014-Apr-20 19:07 270 1 gusting 2 6.1
2014-Apr-20 19:02 270 0 gusting 2 6.1
2014-Apr-20 18:57 270 1 gusting 2 6.7
2014-Apr-20 18:52 248 1 gusting 2 6.7
2014-Apr-20 18:47 225 1 gusting 2 6.7
2014-Apr-20 18:42 248 0 gusting 1 7.2
2014-Apr-20 18:37 270 0 gusting 1 7.2
2014-Apr-20 18:32 225 0 gusting 1 7.8
2014-Apr-20 18:27 248 0 gusting 2 7.8
2014-Apr-20 18:22 225 7.8
2014-Apr-20 18:17 248 0 gusting 2 8.3
2014-Apr-20 18:12 225 1 gusting 1 8.3
2014-Apr-20 18:07 225 0 gusting 1 8.9
2014-Apr-20 18:02 180 0 gusting 1 8.9
2014-Apr-20 17:57 248 0 gusting 1 9.4
2014-Apr-20 17:52 248 0 gusting 1 9.4
2014-Apr-20 17:47 225 0 gusting 1 10.0
2014-Apr-20 17:42 248 0 gusting 2 10.0
2014-Apr-20 17:37 270 0 gusting 2 10.0
2014-Apr-20 17:32 248 0 gusting 2 10.6
2014-Apr-20 17:27 248 0 gusting 1 10.6
2014-Apr-20 17:22 248 0 gusting 2 10.6
2014-Apr-20 17:17 270 0 gusting 2 11.1
2014-Apr-20 17:12 293 1 gusting 3 11.1
2014-Apr-20 17:07 270 1 gusting 3 11.1
2014-Apr-20 17:02 270 0 gusting 3 11.7
2014-Apr-20 16:57 203 0 gusting 1 11.7
2014-Apr-20 16:52 270 0 gusting 1 11.7
2014-Apr-20 16:47 315 0 gusting 3 11.7
2014-Apr-20 16:42 248 1 gusting 3 11.7
2014-Apr-20 16:37 270 1 gusting 3 12.2
2014-Apr-20 16:32 293 1 gusting 3 12.2
2014-Apr-20 16:27 315 1 gusting 3 12.2
2014-Apr-20 16:22 315 0 gusting 3 12.2
2014-Apr-20 16:17 315 1 gusting 3 12.2
2014-Apr-20 16:12 270 1 gusting 2 12.2
2014-Apr-20 16:07 248 0 gusting 3 12.2
2014-Apr-20 16:02 248 1 gusting 3 12.2
2014-Apr-20 15:57 203 1 gusting 3 12.2
2014-Apr-20 15:52 248 1 gusting 3 12.2
2014-Apr-20 15:47 248 1 gusting 3 12.2
2014-Apr-20 15:42 248 1 gusting 3 12.2
2014-Apr-20 15:37 203 1 gusting 4 12.2
2014-Apr-20 15:32 203 1 gusting 4 12.2
2014-Apr-20 15:27 158 1 gusting 4 12.8
2014-Apr-20 15:22 225 2 gusting 4 12.8
2014-Apr-20 15:17 203 2 gusting 5 12.8
2014-Apr-20 15:12 225 2 gusting 6 12.8
2014-Apr-20 15:07 293 2 gusting 6 12.8
2014-Apr-20 15:02 293 3 gusting 6 12.8
2014-Apr-20 14:57 225 3 gusting 4 12.8
2014-Apr-20 14:52 225 2 gusting 6 12.8
2014-Apr-20 14:47 225 3 gusting 6 12.8
2014-Apr-20 14:42 315 3 gusting 6 13.3
2014-Apr-20 14:37 225 3 gusting 6 13.3
2014-Apr-20 14:32 225 2 gusting 6 13.3
2014-Apr-20 14:27 270 3 gusting 6 13.3
2014-Apr-20 14:22 180 3 gusting 6 13.3
2014-Apr-20 14:17 248 3 gusting 6 13.3
2014-Apr-20 14:12 225 3 gusting 6 13.3
2014-Apr-20 14:07 225 3 gusting 6 13.3
2014-Apr-20 14:02 225 3 gusting 6 13.3
2014-Apr-20 13:57 315 3 gusting 6 13.3
2014-Apr-20 13:52 248 3 gusting 8 13.3
2014-Apr-20 13:47 248 3 gusting 8 13.3
2014-Apr-20 13:42 180 3 gusting 8 13.3
2014-Apr-20 13:37 180 3 gusting 6 13.3
2014-Apr-20 13:32 158 3 gusting 6 13.3
2014-Apr-20 13:27 225 3 gusting 6 13.3
2014-Apr-20 13:22 225 3 gusting 6 13.3
2014-Apr-20 13:17 248 4 gusting 6 13.3
2014-Apr-20 13:12 158 4 gusting 6 13.3
2014-Apr-20 13:07 180 3 gusting 6 13.3
2014-Apr-20 13:02 203 3 gusting 6 13.3
2014-Apr-20 12:57 270 3 gusting 7 13.3
2014-Apr-20 12:52 225 4 gusting 7 13.3
2014-Apr-20 12:47 225 4 gusting 7 13.3
2014-Apr-20 12:42 203 3 gusting 7 13.3
2014-Apr-20 12:37 248 3 gusting 7 13.3
2014-Apr-20 12:32 203 3 gusting 7 13.3
2014-Apr-20 12:27 180 3 gusting 7 13.3
2014-Apr-20 12:22 225 4 gusting 7 13.3
2014-Apr-20 12:17 248 4 gusting 7 13.3
2014-Apr-20 12:12 248 5 gusting 7 13.3
2014-Apr-20 12:07 315 4 gusting 7 13.3
2014-Apr-20 12:02 248 4 gusting 7 13.3
2014-Apr-20 11:57 225 4 gusting 7 13.3
2014-Apr-20 11:52 293 4 gusting 7 12.8
2014-Apr-20 11:47 270 3 gusting 7 12.8
2014-Apr-20 11:42 203 4 gusting 7 12.8
2014-Apr-20 11:37 248 4 gusting 11 12.8
2014-Apr-20 11:32 338 3 gusting 11 12.8
2014-Apr-20 11:27 180 3 gusting 11 12.8
2014-Apr-20 11:22 180 3 gusting 5 12.2
2014-Apr-20 11:17 248 4 gusting 7 12.2
2014-Apr-20 11:12 045 5 gusting 8 12.2
2014-Apr-20 11:07 158 5 gusting 8 11.7
2014-Apr-20 11:02 248 4 gusting 8 12.2
2014-Apr-20 10:57 158 4 gusting 6 11.7
2014-Apr-20 10:52 225 4 gusting 6 11.7
2014-Apr-20 10:47 203 4 gusting 7 11.7
2014-Apr-20 10:42 248 4 gusting 7 11.7
2014-Apr-20 10:37 203 3 gusting 6 11.7
2014-Apr-20 10:32 135 3 gusting 6 11.7
2014-Apr-20 10:27 338 3 gusting 6 11.7
2014-Apr-20 10:22 248 4 gusting 6 11.7
2014-Apr-20 10:17 180 4 gusting 7 11.7
2014-Apr-20 10:12 225 5 gusting 7 11.7
2014-Apr-20 10:07 180 5 gusting 7 11.7
2014-Apr-20 10:02 225 4 gusting 6 11.7
2014-Apr-20 09:57 203 3 gusting 6 11.7
2014-Apr-20 09:52 203 3 gusting 6 11.7
2014-Apr-20 09:47 203 3 gusting 6 11.1
2014-Apr-20 09:42 203 3 gusting 6 11.1
2014-Apr-20 09:37 248 3 gusting 6 11.1
2014-Apr-20 09:32 180 3 gusting 6 11.1
2014-Apr-20 09:27 315 4 gusting 6 10.6
2014-Apr-20 09:22 270 4 gusting 5 11.1
2014-Apr-20 09:17 225 4 gusting 6 10.6
2014-Apr-20 09:12 203 3 gusting 6 10.6
2014-Apr-20 09:07 203 3 gusting 8 10.6
2014-Apr-20 09:02 203 4 gusting 8 10.6
2014-Apr-20 08:57 180 4 gusting 8 10.0
2014-Apr-20 08:52 225 3 gusting 6 10.0
2014-Apr-20 08:47 158 3 gusting 4 10.0
2014-Apr-20 08:42 158 3 gusting 8 10.0
2014-Apr-20 08:37 203 3 gusting 8 10.0
2014-Apr-20 08:32 203 3 gusting 8 10.0
2014-Apr-20 08:27 248 3 gusting 5 10.0
2014-Apr-20 08:22 158 3 gusting 5 9.4
2014-Apr-20 08:17 180 3 gusting 6 9.4
2014-Apr-20 08:12 203 3 gusting 6 9.4
2014-Apr-20 08:07 158 3 gusting 6 9.4
2014-Apr-20 08:02 180 3 gusting 6 9.4
2014-Apr-20 07:57 180 3 gusting 6 8.9
2014-Apr-20 07:52 225 2 gusting 6 8.9
2014-Apr-20 07:47 225 3 gusting 6 8.9
2014-Apr-20 07:42 270 3 gusting 6 8.9
2014-Apr-20 07:37 225 4 gusting 6 8.9
2014-Apr-20 07:32 225 4 gusting 6 8.9
2014-Apr-20 07:27 203 4 gusting 6 8.9
2014-Apr-20 07:22 180 3 gusting 7 8.9
2014-Apr-20 07:17 315 3 gusting 7 8.9
2014-Apr-20 07:12 180 3 gusting 7 8.3
2014-Apr-20 07:07 225 4 gusting 6 8.3
2014-Apr-20 07:02 225 3 gusting 6 8.3
2014-Apr-20 06:57 225 3 gusting 6 8.3
2014-Apr-20 06:52 248 4 gusting 6 8.3
2014-Apr-20 06:47 248 4 gusting 6 8.3
2014-Apr-20 06:42 158 3 gusting 7 8.3
2014-Apr-20 06:37 158 4 gusting 7 7.8
2014-Apr-20 06:32 248 3 gusting 7 7.8
2014-Apr-20 06:27 248 3 gusting 9 7.8
2014-Apr-20 06:22 225 3 gusting 9 7.8
2014-Apr-20 06:17 158 2 gusting 6 7.8
2014-Apr-20 06:12 248 3 gusting 6 7.8
2014-Apr-20 06:07 203 3 gusting 8 7.8
2014-Apr-20 06:02 135 3 gusting 8 7.8
2014-Apr-20 05:57 158 3 gusting 8 7.2
2014-Apr-20 05:52 270 3 gusting 6 7.2
2014-Apr-20 05:47 203 2 gusting 6 7.2
2014-Apr-20 05:42 158 2 gusting 5 7.2
2014-Apr-20 05:37 203 2 gusting 6 7.2
2014-Apr-20 05:32 158 2 gusting 6 7.2
2014-Apr-20 05:27 180 3 gusting 6 7.2
2014-Apr-20 05:22 158 3 gusting 6 7.2
2014-Apr-20 05:17 158 3 gusting 6 7.2
2014-Apr-20 05:12 180 3 gusting 6 7.2
2014-Apr-20 05:07 180 3 gusting 6 7.2
2014-Apr-20 05:02 203 2 gusting 6 7.2
2014-Apr-20 04:57 180 3 gusting 6 7.2
2014-Apr-20 04:52 135 2 gusting 4 7.2
2014-Apr-20 04:47 113 2 gusting 6 7.2
2014-Apr-20 04:42 203 3 gusting 6 6.7
2014-Apr-20 04:37 158 4 gusting 6 6.7
2014-Apr-20 04:32 180 4 gusting 6 6.7
2014-Apr-20 04:27 158 4 gusting 6 6.7
2014-Apr-20 04:22 158 3 gusting 6 6.7
2014-Apr-20 04:17 180 3 gusting 6 6.7
2014-Apr-20 04:12 180 3 gusting 6 6.7
2014-Apr-20 04:07 180 3 gusting 5 6.1
2014-Apr-20 04:02 045 2 gusting 4 6.1
2014-Apr-20 03:57 135 2 gusting 3 6.1
2014-Apr-20 03:52 180 1 gusting 2 6.1
2014-Apr-20 03:47 158 1 gusting 4 6.1
2014-Apr-20 03:42 158 2 gusting 4 6.1
2014-Apr-20 03:37 180 3 gusting 5 6.1
2014-Apr-20 03:32 158 3 gusting 5 6.1
2014-Apr-20 03:27 158 2 gusting 5 6.1
2014-Apr-20 03:22 180 2 gusting 5 6.1
2014-Apr-20 03:17 158 2 gusting 6 6.1
2014-Apr-20 03:12 135 2 gusting 6 5.6
2014-Apr-20 03:07 135 2 gusting 7 5.6
2014-Apr-20 03:02 158 2 gusting 7 6.1
2014-Apr-20 02:57 315 3 gusting 7 6.1
2014-Apr-20 02:52 270 3 gusting 5 6.1
2014-Apr-20 02:47 135 3 gusting 6 6.1
2014-Apr-20 02:42 158 3 gusting 6 6.1
2014-Apr-20 02:37 180 3 gusting 6 6.1
2014-Apr-20 02:32 158 3 gusting 6 6.1
2014-Apr-20 02:27 135 3 gusting 6 6.1
2014-Apr-20 02:22 135 2 gusting 6 6.1
2014-Apr-20 02:17 113 1 gusting 3 6.1
2014-Apr-20 02:12 180 1 gusting 6 6.1
2014-Apr-20 02:07 203 2 gusting 6 6.1
2014-Apr-20 02:02 158 2 gusting 6 6.1
2014-Apr-20 01:57 158 1 gusting 6 6.1
2014-Apr-20 01:52 158 2 gusting 6 6.1
2014-Apr-20 01:47 158 3 gusting 6 6.1
2014-Apr-20 01:42 135 3 gusting 7 6.7
2014-Apr-20 01:37 180 3 gusting 7 6.7
2014-Apr-20 01:32 158 3 gusting 7 6.7
2014-Apr-20 01:27 135 3 gusting 6 6.7
2014-Apr-20 01:22 180 4 gusting 6 6.7
2014-Apr-20 01:17 180 4 gusting 7 6.7
2014-Apr-20 01:12 158 4 gusting 7 6.7
2014-Apr-20 01:07 113 3 gusting 7 6.7
2014-Apr-20 01:02 135 4 gusting 6 6.7
2014-Apr-20 00:57 158 4 gusting 6 6.7
2014-Apr-20 00:52 113 4 gusting 6 6.7
2014-Apr-20 00:47 135 3 gusting 10 6.7
2014-Apr-20 00:42 158 4 gusting 10 6.7
2014-Apr-20 00:37 135 3 gusting 6 6.7
2014-Apr-20 00:32 135 3 gusting 6 7.2
2014-Apr-20 00:27 135 4 gusting 6 7.2
2014-Apr-20 00:22 113 3 gusting 5 7.2
2014-Apr-20 00:17 135 3 gusting 3 7.2
2014-Apr-20 00:12 113 3 gusting 3 7.2
2014-Apr-20 00:07 113 3 gusting 7 7.2
2014-Apr-20 00:02 180 3 gusting 7 7.2
2014-Apr-19 23:57 158 3 gusting 7 7.2
2014-Apr-19 23:52 135 3 gusting 6 7.2
2014-Apr-19 23:47 135 3 gusting 6 7.2
2014-Apr-19 23:42 135 3 gusting 6 7.2
2014-Apr-19 23:37 135 3 gusting 6 7.2
2014-Apr-19 23:32 180 3 gusting 4 7.2
2014-Apr-19 23:27 158 2 gusting 5 7.2
2014-Apr-19 23:22 135 2 gusting 5 7.2
2014-Apr-19 23:17 135 2 gusting 5 7.2
2014-Apr-19 23:12 158 2 gusting 5 7.2
2014-Apr-19 23:07 113 2 gusting 3 7.2
2014-Apr-19 23:02 113 2 gusting 3 7.2
2014-Apr-19 22:57 135 1 gusting 4 7.2
2014-Apr-19 22:52 135 1 gusting 4 7.2
2014-Apr-19 22:47 113 1 gusting 3 7.2
2014-Apr-19 22:42 158 1 gusting 3 7.2
2014-Apr-19 22:37 135 0 gusting 3 7.8
2014-Apr-19 22:32 158 7.8
2014-Apr-19 22:27 7.8
2014-Apr-19 22:22 045 7.8
2014-Apr-19 22:17 113 0 gusting 2 7.8
2014-Apr-19 22:12 090 0 gusting 4 8.3
2014-Apr-19 22:07 068 2 gusting 6 8.3
2014-Apr-19 22:02 113 3 gusting 6 8.3
2014-Apr-19 21:57 090 3 gusting 6 8.3
2014-Apr-19 21:52 135 3 gusting 6 8.3
2014-Apr-19 21:47 135 4 gusting 7 8.3
2014-Apr-19 21:42 180 4 gusting 7 7.8
2014-Apr-19 21:37 135 5 gusting 7 7.8
2014-Apr-19 21:32 180 5 gusting 7 7.8
2014-Apr-19 21:27 158 4 gusting 7 7.8
2014-Apr-19 21:22 158 4 gusting 6 7.8
2014-Apr-19 21:17 158 4 gusting 6 7.8
2014-Apr-19 21:12 135 3 gusting 6 7.8
2014-Apr-19 21:07 135 3 gusting 5 7.8
2014-Apr-19 20:57 158 3 gusting 6 7.8
2014-Apr-19 20:52 180 3 gusting 6 7.2
2014-Apr-19 20:47 158 3 gusting 3 7.2
2014-Apr-19 20:42 158 2 gusting 3 7.2
2014-Apr-19 20:37 135 2 gusting 3 7.2
2014-Apr-19 20:32 135 1 gusting 3 7.2
2014-Apr-19 20:27 135 1 gusting 3 7.2
2014-Apr-19 20:22 203 1 gusting 3 7.2
2014-Apr-19 20:17 113 1 gusting 3 7.2
2014-Apr-19 20:12 158 0 gusting 3 7.2
2014-Apr-19 20:07 135 7.2
2014-Apr-19 20:02 113 7.8
2014-Apr-19 19:57 180 7.8
2014-Apr-19 19:52 113 7.8
2014-Apr-19 19:47 113 7.8
2014-Apr-19 19:42 135 7.8
2014-Apr-19 19:37 135 7.8
2014-Apr-19 19:32 113 7.8
2014-Apr-19 19:27 090 7.8
2014-Apr-19 19:22 068 7.8
2014-Apr-19 19:17 068 7.8
2014-Apr-19 19:12 090 8.3
2014-Apr-19 19:07 090 8.3
2014-Apr-19 19:02 113 8.3
2014-Apr-19 18:57 158 8.3
2014-Apr-19 18:52 090 8.3
2014-Apr-19 18:47 090 0 gusting 1 8.3
2014-Apr-19 18:42 090 0 gusting 1 8.9
2014-Apr-19 18:37 090 0 gusting 1 8.9
2014-Apr-19 18:32 090 0 gusting 1 8.9
2014-Apr-19 18:27 090 0 gusting 2 8.9
2014-Apr-19 18:22 090 0 gusting 2 8.9
2014-Apr-19 18:17 113 0 gusting 2 9.4
2014-Apr-19 18:12 113 0 gusting 1 9.4
2014-Apr-19 18:07 135 0 gusting 1 9.4
2014-Apr-19 18:02 113 0 gusting 1 9.4
2014-Apr-19 17:57 135 0 gusting 2 9.4
2014-Apr-19 17:52 090 0 gusting 2 9.4
2014-Apr-19 17:47 135 0 gusting 2 10.0
2014-Apr-19 17:42 113 0 gusting 1 10.0
2014-Apr-19 17:37 068 0 gusting 2 10.0
2014-Apr-19 17:32 113 0 gusting 2 10.0
2014-Apr-19 17:27 113 1 gusting 2 10.6
2014-Apr-19 17:22 090 1 gusting 2 10.6
2014-Apr-19 17:17 068 1 gusting 1 10.6
2014-Apr-19 17:12 113 0 gusting 1 10.6
2014-Apr-19 17:02 113 0 gusting 3 10.6
2014-Apr-19 16:57 068 0 gusting 3 11.1
2014-Apr-19 16:52 113 0 gusting 3 11.1
2014-Apr-19 16:47 068 0 gusting 2 11.1
2014-Apr-19 16:42 068 0 gusting 2 11.1
2014-Apr-19 16:37 090 0 gusting 2 11.7
2014-Apr-19 16:32 068 0 gusting 2 11.7
2014-Apr-19 16:27 090 0 gusting 2 11.7
2014-Apr-19 16:22 090 0 gusting 3 11.7
2014-Apr-19 16:17 090 1 gusting 5 11.7
2014-Apr-19 16:12 090 1 gusting 5 12.2
2014-Apr-19 16:07 090 2 gusting 5 12.2
2014-Apr-19 16:02 113 2 gusting 6 12.2
2014-Apr-19 15:57 113 2 gusting 6 12.2
2014-Apr-19 15:52 113 2 gusting 6 12.2
2014-Apr-19 15:47 135 3 gusting 11 12.8
2014-Apr-19 15:42 248 3 gusting 11 12.8
2014-Apr-19 15:37 158 3 gusting 7 12.8
2014-Apr-19 15:32 135 2 gusting 7 12.8
2014-Apr-19 15:27 225 3 gusting 7 12.8
2014-Apr-19 15:22 180 3 gusting 10 12.8
2014-Apr-19 15:17 180 4 gusting 10 13.3
2014-Apr-19 15:12 135 5 gusting 10 13.3
2014-Apr-19 15:07 180 6 gusting 10 13.3
2014-Apr-19 15:02 090 6 gusting 10 13.3
2014-Apr-19 14:57 113 6 gusting 9 13.3
2014-Apr-19 14:52 158 4 gusting 9 13.3
2014-Apr-19 14:47 158 4 gusting 9 13.3
2014-Apr-19 14:42 090 5 gusting 6 13.9
2014-Apr-19 14:37 135 4 gusting 7 13.3
2014-Apr-19 14:32 158 5 gusting 7 13.3
2014-Apr-19 14:27 135 5 gusting 7 13.9
2014-Apr-19 14:22 135 4 gusting 8 13.3
2014-Apr-19 14:17 135 3 gusting 8 13.3
2014-Apr-19 14:12 113 3 gusting 8 13.9
2014-Apr-19 14:07 113 3 gusting 16 13.3
2014-Apr-19 14:02 090 5 gusting 16 13.3
2014-Apr-19 13:57 135 6 gusting 16 13.3
2014-Apr-19 13:52 158 4 gusting 10 13.3
2014-Apr-19 13:47 135 3 gusting 9 13.3
2014-Apr-19 13:42 113 5 gusting 13 13.3
2014-Apr-19 13:37 113 6 gusting 13 13.9
2014-Apr-19 13:32 135 4 gusting 7 13.9
2014-Apr-19 13:27 068 4 gusting 6 13.9
2014-Apr-19 13:22 135 4 gusting 6 13.9
2014-Apr-19 13:17 135 3 gusting 9 13.9
2014-Apr-19 13:12 068 4 gusting 9 13.9
2014-Apr-19 13:07 068 5 gusting 11 13.9
2014-Apr-19 13:02 090 5 gusting 11 13.9
2014-Apr-19 12:57 135 5 gusting 13 13.9
2014-Apr-19 12:52 113 5 gusting 16 13.9
2014-Apr-19 12:47 113 6 gusting 16 13.9
2014-Apr-19 12:42 135 6 gusting 16 13.9
2014-Apr-19 12:37 158 5 gusting 8 13.3
2014-Apr-19 12:32 135 5 gusting 6 13.3
2014-Apr-19 12:27 113 5 gusting 6 13.3
2014-Apr-19 12:22 113 4 gusting 8 13.3
2014-Apr-19 12:17 068 4 gusting 11 13.3
2014-Apr-19 12:12 045 4 gusting 11 12.8
2014-Apr-19 12:07 158 5 gusting 11 12.8
2014-Apr-19 12:02 180 5 gusting 9 12.8
2014-Apr-19 11:57 090 3 gusting 8 12.2
2014-Apr-19 11:52 158 4 gusting 8 12.2
2014-Apr-19 11:47 068 5 gusting 8 12.2
2014-Apr-19 11:42 135 6 gusting 10 12.2
2014-Apr-19 11:37 180 6 gusting 12 12.2
2014-Apr-19 11:32 180 6 gusting 12 12.2
2014-Apr-19 11:27 158 5 gusting 8 12.2
2014-Apr-19 11:22 135 6 gusting 8 12.2
2014-Apr-19 11:17 158 6 gusting 8 11.7
2014-Apr-19 11:12 158 4 gusting 9 11.7
2014-Apr-19 11:07 135 4 gusting 9 11.7
2014-Apr-19 11:02 158 4 gusting 10 11.7
2014-Apr-19 10:57 135 5 gusting 10 11.7
2014-Apr-19 10:52 090 6 gusting 10 11.7
2014-Apr-19 10:47 158 5 gusting 7 11.7
2014-Apr-19 10:42 113 4 gusting 6 11.7
2014-Apr-19 10:37 135 5 gusting 6 11.1
2014-Apr-19 10:32 090 6 gusting 11 11.1
2014-Apr-19 10:27 090 5 gusting 11 11.1
2014-Apr-19 10:22 158 5 gusting 11 11.1
2014-Apr-19 10:17 113 6 gusting 8 11.1
2014-Apr-19 10:12 113 6 gusting 8 11.1
2014-Apr-19 10:07 135 6 gusting 8 11.1
2014-Apr-19 10:02 158 4 gusting 6 11.1
2014-Apr-19 09:57 113 4 gusting 7 11.1
2014-Apr-19 09:52 158 4 gusting 9 11.1
2014-Apr-19 09:47 135 5 gusting 9 11.1
2014-Apr-19 09:42 135 5 gusting 13 11.1
2014-Apr-19 09:37 135 5 gusting 13 10.6
2014-Apr-19 09:32 180 5 gusting 13 10.6
2014-Apr-19 09:27 180 5 gusting 9 10.6
2014-Apr-19 09:22 090 5 gusting 9 10.0
2014-Apr-19 09:17 158 5 gusting 7 10.0
2014-Apr-19 09:12 158 4 gusting 8 9.4
2014-Apr-19 09:07 158 4 gusting 8 9.4
2014-Apr-19 09:02 158 4 gusting 8 9.4
2014-Apr-19 08:57 090 3 gusting 6 9.4
2014-Apr-19 08:52 180 3 gusting 6 9.4
2014-Apr-19 08:47 180 4 gusting 8 9.4
2014-Apr-19 08:42 180 4 gusting 8 8.9
2014-Apr-19 08:37 113 5 gusting 8 8.9
2014-Apr-19 08:32 158 4 gusting 7 9.4
2014-Apr-19 08:27 158 4 gusting 8 9.4
2014-Apr-19 08:22 180 4 gusting 8 9.4
2014-Apr-19 08:17 180 4 gusting 8 9.4
2014-Apr-19 08:12 158 5 gusting 8 9.4
2014-Apr-19 08:07 158 4 gusting 8 8.9
2014-Apr-19 08:02 135 4 gusting 6 8.9
2014-Apr-19 07:57 135 5 gusting 6 8.9
2014-Apr-19 07:52 180 5 gusting 6 8.3
2014-Apr-19 07:47 135 4 gusting 8 8.3
2014-Apr-19 07:42 180 4 gusting 8 8.3
2014-Apr-19 07:37 180 3 gusting 8 8.3
2014-Apr-19 07:32 180 3 gusting 6 8.3
2014-Apr-19 07:27 203 3 gusting 6 7.8
2014-Apr-19 07:22 135 3 gusting 6 7.8
2014-Apr-19 07:17 068 3 gusting 6 7.8
2014-Apr-19 07:12 135 3 gusting 6 7.8
2014-Apr-19 07:07 225 5 gusting 9 7.8
2014-Apr-19 07:02 180 5 gusting 9 7.2